Location: PSU-Greenbush Astrophysical Observatory
(37.5140°N, 94.9880°W)
Time: 09:26:31
(UTC-06:00)

Transit 2A - Pass Details

Date: 27 January 2020
Orbit: 600 x 959 km, 66.7° (Epoch: 16 February)

Event Time Altitude Azimuth Distance (km) Brightness Sun altitude
Rises 06:08:32 0° 312° (NW) 3,081 - -15.8°
Reaches altitude 10° 06:11:27 10° 294° (WNW) 2,224 - -15.2°
Exits shadow 06:14:40 18° 254° (WSW) 1,804 7.4 -14.6°
Maximum altitude 06:14:49 18° 252° (WSW) 1,805 7.4 -14.6°
Drops below altitude 10° 06:18:24 10° 211° (SSW) 2,375 8.4 -13.9°
Sets 06:21:40 0° 193° (SSW) 3,377 9.3 -13.3°
